User: anonymous   Login
Location: Caltech
(34.1382°N, 118.1253°W)
Time: 12:35:43
(UTC-08:00)
Language:

Lacrosse 5 rocket - Orbit

View from above orbital plane
View from above orbital plane
View from above satellite
View from above satellite

Ground track
Ground track

The orbit data is extracted from the following two-line orbital elements,

1 28647U 05016B   17327.24178596 0.00000700  00000-0  40570-4 0    01
2 28647  56.9975  89.6503 0126004 246.4270 113.5730 15.05197203    02
Epoch (UTC): 23 November 2017 05:48:10
Eccentricity: 0.0126004
inclination: 56.9975°
perigee height: 463 km
apogee height: 638 km
right ascension of ascending node: 89.6503°
argument of perigee: 246.4270°
revolutions per day: 15.05197203
mean anomaly at epoch: 113.5730°
orbit number at epoch: 0

The dashed part of the orbit path shows where the satellite is in the earth's shadow,  

DLR